Regional Weather Roundup
Issued by NWS

Home | Current Version | Previous Version | Graphics & Text | Print | Product List | Glossary On
Versions: 1 2 3 4 5 6 7 8 9 10 11 12 13 14 15 16 17 18 19 20 21 22 23 24 25 26 27 28 29 30 31 32 33 34 35 36 37 38 39 40 41 42 43 44 45 46 47 48 49 50
000
ASUS43 KMKX 270521
RWRWI

WISCONSIN REGIONAL WEATHER ROUNDUP
NATIONAL WEATHER SERVICE MILWAUKEE/SULLIVAN WI
1200 AM CDT SAT AUG 27 2016

NOTE: "FAIR" INDICATES FEW OR NO CLOUDS BELOW 12,000 FEET WITH NO
SIGNIFICANT WEATHER AND/OR OBSTRUCTIONS TO VISIBILITY.

WIZ001-002-006>008-014>016-023>028-270600-
NORTHWEST WISCONSIN

CITY           SKY/WX    TMP DP  RH WIND       PRES   REMARKS
SUPERIOR ARPT  CLOUDY    54  53  98 CALM      30.12S
ASHLAND        CLOUDY    56  54  93 SE3       30.15S
HAYWARD        CLOUDY    54  52  93 CALM      30.15F
SIREN          PTCLDY    60  57  91 CALM      30.13S
CUMBERLAND     CLOUDY    57  55  94 CALM      30.14F
RICE LAKE      CLOUDY    57  55  93 CALM      30.15F
CHETEK         NOT AVBL
LADYSMITH      CLOUDY    58  56  94 CALM      30.17F
EAU CLAIRE     CLOUDY    60  59  96 CALM      30.13F
MENOMONIE      CLOUDY    61  58  91 E3        30.13F
NEW RICHMOND   MOCLDY    59  57  91 SE3       30.12F
OSCEOLA        CLOUDY    61  61 100 CALM      30.15S
$$

WIZ003>005-009-010-017-018-270600-
NORTH CENTRAL WISCONSIN

CITY           SKY/WX    TMP DP  RH WIND       PRES   REMARKS
MANITOWISH WTR NOT AVBL
ARBOR VITAE    PTCLDY    56  54  92 CALM      30.18S
WOODRUFF       PTCLDY    56  54  92 CALM      30.18S
RHINELANDER    CLOUDY    55  55 100 N3        30.19S
EAGLE RIVER    CLOUDY    51  51 100 CALM      30.18S
LAND O LAKES   CLOUDY    49  49 100 CALM      30.19F
PHILLIPS       CLOUDY    53  53 100 CALM      30.16F
TOMAHAWK       CLOUDY    53  52  97 CALM      30.18F
MEDFORD        CLOUDY    56  56 100 CALM      30.16F
MERRILL        CLOUDY    57  57  99 NE3       30.17F
$$

WIZ029-030-035-036-043>047-270600-
CENTRAL WISCONSIN

CITY           SKY/WX    TMP DP  RH WIND       PRES   REMARKS
WAUSAU         CLOUDY    62  57  83 CALM      30.15F
MOSINEE        CLOUDY    59  59 100 CALM      30.17F
MARSHFIELD     CLOUDY    62  57  83 CALM      30.15F
STEVENS POINT  CLOUDY    58  57  96 CALM      30.16F
WAUPACA        CLOUDY    64  63  96 CALM      30.15F
WAUTOMA        CLOUDY    63  61  93 CALM      30.15F
WISC RAPIDS    CLOUDY    62  59  90 NE6       30.15F
CAMP DOUGLAS   CLOUDY    63  62  97 SE2       30.14F
$$

WIZ011>013-019>022-031-037>040-048>050-270600-
NORTHEAST WISCONSIN

CITY           SKY/WX    TMP DP  RH WIND       PRES   REMARKS
ANTIGO         CLOUDY    57  56  96 CALM      30.18S
SHAWANO        CLOUDY    63  58  86 CALM      30.16S
OCONTO         NOT AVBL
STURGEON BAY   MOCLDY    63  58  83 CALM      30.16S
GREEN BAY      MOCLDY    62  62 100 CALM      30.15F
MANITOWOC      MOCLDY    61  58  90 CALM      30.15F
APPLETON       CLOUDY    64  52  63 CALM      30.14F
CLINTONVILLE   MOCLDY    61  59  94 CALM      30.15S
OSHKOSH        CLOUDY    65  60  84 CALM      30.14S
$$

WIZ032>034-041-042-053>061-270600-
SOUTHWEST WISCONSIN

CITY           SKY/WX    TMP DP  RH WIND       PRES   REMARKS
LA CROSSE      LGT RAIN  66  63  90 SE3       30.13S
SPARTA         LGT RAIN  62  61  98 CALM      30.15S
VIROQUA        CLOUDY    63  62  97 CALM      30.17R
BOSCOBEL       CLOUDY    65  63  93 CALM      30.12S
PRAIRIE DU CHI LGT RAIN  65  60  85 CALM      30.13R
PLATTEVILLE    MOCLDY    66  63  91 NE7       30.12S
$$

WIZ056-057-062-063-064-067-068-270600-
SOUTH CENTRAL WISCONSIN

CITY           SKY/WX    TMP DP  RH WIND       PRES   REMARKS
REEDSBURG      NOT AVBL
BARABOO/DELLS  CLOUDY    63  60  91 CALM      30.14R
LONE ROCK      CLOUDY    65  61  87 E3        30.13R
MINERAL POINT  CLOUDY    66  61  82 NE6       30.13R
MADISON        CLOUDY    65  59  81 E3        30.12S
MIDDLETON      CLOUDY    65  61  84 NE3       30.13S
WATERTOWN      CLOUDY    64  60  90 E3        30.13S
MONROE         CLOUDY    64  61  88 E5        30.13R
JANESVILLE     CLOUDY    68  61  77 SE7       30.12R
$$

WIZ051-052-058>065-066-070>072-270600-
SOUTHEAST WISCONSIN

CITY           SKY/WX    TMP DP  RH WIND       PRES   REMARKS
MILWAUKEE      CLOUDY    66  61  84 NE6       30.13F
WAUKESHA       MOCLDY    63  57  82 E6        30.14F
MILWAUKEE/TIMM MOCLDY    66  55  68 CALM      30.14F
RACINE         CLOUDY    67  60  78 NE7       30.14F
BURLINGTON     PTCLDY    63  58  83 E6        30.13S
KENOSHA        CLOUDY    65  60  84 E6        30.14F
FOND DU LAC    MOCLDY    64  60  87 SE3       30.14S
SHEBOYGAN      CLOUDY    62  59  90 CALM      30.15S
WEST BEND      PTCLDY    61  59  94 CALM      30.15S
JUNEAU         PTCLDY    64  59  84 E5        30.15S
$$

LSZ147-162-270600-
LAKE SUPERIOR

STATION/POSITION TIME  TEMP    WIND        PRES    WAVE
                       AIR SEA DIR/SP/G            HT/PER
                 (UTC) (F)     (DEG/KT/KT) (MB)    (FT/S)
W MID LAKE BUOY  0450   66 67  160/ 10/ 12 1020.4R   1
DEVILS ISLAND    0500   64     150/  7/  9 1020.4F
PORT WING        0400   65     170/  6/  8 1020.0
SAXON HARBOR     0400   59     200/  5/  7 1020.7
$$

LMZ867-665-643>646-270600-
LAKE MICHIGAN

STATION/POSITION TIME  TEMP    WIND        PRES    WAVE
                       AIR SEA DIR/SP/G            HT/PER
                 (UTC) (F)     (DEG/KT/KT) (MB)    (FT/S)
CHAMBERS ISLAND  0400   65      CALM  /  2 1020.7F
S GREEN BAY BUOY 0400   69 72  270/  8/ 10 1020.5S
N MID LAKE BUOY  0450   68 71   50/  4/  6 1020.7R   1
NORTHPORT PIER   0400   65     200/  2/  5 1020.7F
SISTER BAY       0407   66        CALM       N/A
KEWAUNEE LAKESHO 0400   61     290/  1/  2 1020.7F
SHEBOYGAN LAKESH 0500   65      CALM  /  1 1020.6S
PORT WASHINGTON  0400   62      CALM  /  1 1021.3
ATWATER BUOY     0500   58     330/  4/  4   N/A
MILWAUKEE LAKESH 0410   65      40/  7/  7   N/A
S MID LAKE BUOY  0450   72 75   60/ 14/ 16 1019.6F   1/ 2
KENOSHA   LAKESH 0500   69      60/  7/  9 1020.0F
$$

TC  - TEMPERATURE IN CELSIUS
VSB - VISIBILITY IN STATUTE MILES
WCI - WIND CHILL INDEX
HX  - HEAT INDEX





USA.gov is the U.S. government's official web portal to all federal, state and local government web resources and services.